Regional Weather Roundup
Issued by NWS

Home | Current Version | Previous Version | Graphics & Text | Print | Product List | Glossary On
Versions: 1 2 3 4 5 6 7 8 9 10 11 12 13 14 15 16 17 18 19 20 21 22 23 24 25 26 27 28 29 30 31 32 33 34 35 36 37 38 39 40 41 42 43 44 45 46 47 48 49 50
324
ASUS44 KJAN 232010
RWRMS

MISSISSIPPI HOURLY WEATHER ROUNDUP
NATIONAL WEATHER SERVICE JACKSON MS
300 PM CDT THU OCT 23 2014

NOTE: "FAIR: INDICATES FEW OR NO CLOUDS BELOW 12,000 FEET WITH NO
SIGNIFICANT WEATHER AND/OR OBSTRUCTIONS TO VISIBILITY.

MSZ001>002-007>008-010>013-018>021-025>028-034>036-232100-
NORTHWEST MISSISSIPPI

CITY           SKY/WX    TMP DP  RH WIND       PRES   REMARKS
CLARKSDALE     FAIR      63  48  59 NW6       30.14F
CLEVELAND      FAIR      62  49  62 N5        30.12S
GREENWOOD      CLOUDY    63  47  55 CALM      30.12F
GREENVILLE     CLOUDY    63  47  55 NW10      30.13S
GRENADA          N/A    N/A N/A N/A MISG        N/A
OLIVE BRANCH   CLOUDY    61  45  55 N7        30.14F
OXFORD         FAIR      63  43  48 NW7       30.14S
TUNICA         CLOUDY    63  45  51 N6        30.15S
$$

MSZ003>006-009-014>017-022>024-029>033-037>039-232100-
NORTHEAST MISSISSIPPI

CITY           SKY/WX    TMP DP  RH WIND       PRES   REMARKS
COLUMBUS AFB   CLOUDY    66  43  43 W5        30.10F
CORINTH        FAIR      64  46  52 VRB7G13   30.11F
GOLDN TRIANGLE PTSUNNY   66  43  42 N7        30.09F
STARKVILLE     FAIR      64  45  48 NW5       30.10F
TUPELO         CLOUDY    65  44  46 VRB3      30.10F
$$

MSZ040-058-232100-
CENTRAL MISSISSIPPI

CITY           SKY/WX    TMP DP  RH WIND       PRES   REMARKS
JACKSON INTL   CLOUDY    67  45  45 NE8       30.09F
JACKSON HAWKNS CLOUDY    66  43  43 N3        30.10F
MERIDIAN KEY   PTSUNNY   70  39  32 N6        30.08F
MERIDIAN NAS   CLOUDY    71  38  29 VRB5      30.08F
RAYMOND        FAIR      64  59  82 CALM      30.09F
VICKSBURG      CLOUDY    68  46  45 NE7       30.09F
$$

MSZ059>079-232100-
SOUTH MISSISSIPPI

CITY           SKY/WX    TMP DP  RH WIND       PRES   REMARKS
BROOKHAVEN     FAIR      70  45  40 NE3       30.09F
COLUMBIA         N/A    N/A N/A N/A MISG        N/A
HATTIESBURG    PTSUNNY   74  43  32 MISG      30.07F
MCCOMB         CLOUDY    72  42  34 NE6       30.07F
NATCHEZ        CLOUDY    66  46  48 N6        30.10F
PINE BELT      PTSUNNY   72  43  35 N6        30.09S
$$

MSZ080>082-232100-
COASTAL MISSISSIPPI

CITY           SKY/WX    TMP DP  RH WIND       PRES   REMARKS
BAY ST LOUIS   SUNNY     73  39  29 VRB5      30.04F
BILOXI         SUNNY     74  44  33 NE5       30.04F
PASCAGOULA     SUNNY     75  42  30 MISG      30.03F
GULFPORT       SUNNY     75  42  30 N6        30.03F
$$



USA.gov is the U.S. government's official web portal to all federal, state and local government web resources and services.